[[{"header":{"parameterUnit":"m.s-1","parameterCategory":1,"la1":30.2991,"la2":30.254,"lo1":-89.0895,"lo2":-89.0444,"dy":0.0017,"dx":0.0017,"nx":28,"ny":28,"refTime":"2025-01-27T03:00:00:Z","depth":0,"parameterNumber":2,"parameterNumberName":"U-component_of_WINDS"},"data":[0,0,0,0,0,0,0,0,0,0,0,0,0,0,0,0,0,0,0,0,0,0,0,0,0,0,0,0,0,0,0,0,0,0,0,0,0,0,0,0,0,0,0,0,0,0,0,0,0,0,0,0,0,0,0,0,0,0,-1.1574,-1.1574,0,-1.1594,-1.1595,-1.1595,-1.1573,-1.1572,-1.1572,-1.1571,-1.1592,-1.1593,-1.1595,0,0,0,0,0,0,0,0,0,0,0,0,0,-1.1517,-1.1518,-1.1574,-1.1574,-1.1575,-1.1594,-1.1595,-1.1595,-1.1573,-1.1572,-1.1571,-1.157,-1.1592,-1.1593,-1.1595,0,0,0,0,0,0,0,0,0,0,0,0,0,-1.154,-1.1519,-1.1574,-1.1566,-1.1566,-1.1594,-1.1595,-1.1595,-1.1574,-1.1572,-1.1571,-1.157,-1.1591,-1.1593,-1.1595,-1.1633,0,0,-1.1601,-1.1602,0,0,0,0,0,0,0,0,-1.1539,-1.1542,-1.1567,-1.1567,-1.1566,-1.158,-1.1582,-1.1608,-1.1574,-1.1571,-1.1571,-1.1569,-1.1589,-1.1591,-1.1598,-1.1634,-1.1634,-1.1601,-1.1603,-1.1604,-1.1604,0,0,0,0,0,0,0,-1.1537,-1.1541,-1.1582,-1.1568,-1.1567,-1.1562,-1.1564,-1.1587,-1.1587,-1.1571,-1.1569,-1.1572,-1.1589,-1.1596,-1.1598,-1.1635,-1.1601,-1.1603,-1.1604,-1.1605,-1.1702,-1.1703,0,0,0,0,0,0,-1.1536,-1.154,-1.1582,-1.1583,-1.1549,-1.1564,-1.1566,-1.1577,-1.1586,-1.1587,-1.1573,-1.1571,-1.1593,-1.1596,-1.1599,-1.1643,-1.1603,-1.1605,-1.1607,-1.1701,-1.1702,-1.1704,0,0,0,0,0,0,-1.1535,-1.154,-1.1581,-1.1561,-1.1566,-1.1566,-1.1579,-1.1578,-1.1585,-1.1588,-1.1588,-1.1581,-1.1592,-1.1596,-1.1624,-1.1644,-1.1606,-1.1608,-1.1699,-1.1701,-1.1703,-1.1733,0,0,0,0,0,0,-1.1534,-1.154,-1.1554,-1.1561,-1.1567,-1.1606,-1.158,-1.1579,-1.1589,-1.1586,-1.1595,-1.1595,-1.1592,-1.1621,-1.1626,-1.1646,-1.161,-1.1697,-1.17,-1.1702,-1.173,-1.1736,-1.1741,0,0,0,0,0,-1.1532,-1.1562,-1.1555,-1.156,-1.1585,-1.1607,-1.161,-1.1605,-1.159,-1.1605,-1.1606,-1.1595,-1.1641,-1.1624,-1.163,-1.165,-1.1696,-1.1699,-1.1702,-1.1728,-1.1735,-1.174,0,0,0,0,0,0,-1.1558,-1.1563,-1.1555,-1.1589,-1.1598,-1.1603,-1.1622,-1.1612,-1.1626,-1.1623,-1.1616,-1.1618,-1.1648,-1.1652,-1.1634,-1.1687,-1.1666,-1.167,-1.1684,-1.169,-1.1695,-1.1694,-1.1611,0,0,0,0,0,-1.1567,-1.1585,-1.1588,-1.1618,-1.1622,-1.1621,-1.1631,-1.1626,-1.1635,-1.1639,-1.1643,-1.1652,-1.1668,-1.1679,-1.1694,-1.173,-1.1732,-1.1747,-1.1752,-1.1756,-1.176,-1.178,-1.1787,-1.1714,-1.1714,-1.1714,0,0,-1.1587,-1.1592,-1.1604,-1.1623,-1.1629,-1.1648,-1.1625,-1.1645,-1.1659,-1.1642,-1.1669,-1.1672,-1.1682,-1.1714,-1.1728,-1.1718,-1.1781,-1.176,-1.1764,-1.1765,-1.1784,-1.1791,-1.1797,-1.1716,-1.1716,-1.1715,0,0,-1.1633,-1.1638,-1.1664,-1.167,-1.168,-1.1679,-1.1685,-1.1692,-1.1693,-1.172,-1.1708,-1.1724,-1.1752,-1.176,-1.1767,-1.1816,-1.1806,-1.1821,-1.1848,-1.1867,-1.1873,-1.1878,-1.1895,-1.1902,-1.1825,-1.1825,-1.1825,0,-1.1657,-1.1684,-1.1678,-1.1699,-1.1708,-1.1693,-1.1718,-1.1725,-1.1739,-1.1746,-1.1734,-1.1769,-1.1775,-1.1808,-1.182,-1.1827,-1.1833,-1.182,-1.1872,-1.1877,-1.1882,-1.1899,-1.1905,-1.1826,-1.1826,-1.1826,-1.1826,0,-1.1713,-1.1732,-1.1751,-1.1765,-1.1776,-1.18,-1.1796,-1.1808,-1.1802,-1.1802,-1.183,-1.1836,-1.1852,-1.186,-1.1854,-1.1893,-1.1886,-1.1873,-1.1852,-1.1891,-1.1906,-1.1913,-1.1829,-1.1828,-1.1828,-1.1827,0,0,-1.1777,-1.1786,-1.1794,-1.18,-1.1809,-1.1824,-1.1846,-1.1862,-1.1872,-1.1882,-1.1901,-1.1925,-1.1914,-1.1922,-1.1917,-1.1934,-1.1972,-1.1919,-1.1919,-1.1929,-1.2015,-1.2025,-1.2033,-1.1965,-1.1966,-1.1967,-1.2015,0,-1.1824,-1.1863,-1.1857,-1.1895,-1.1913,-1.1898,-1.1918,-1.1926,-1.1926,-1.1941,-1.1942,-1.1959,-1.1942,-1.1947,-1.1963,-1.1964,-1.1989,-1.196,-1.1983,-1.1984,-1.1982,-1.2041,-1.2052,-1.2096,-1.2021,-1.2022,-1.2022,0,-1.1884,-1.1896,-1.1935,-1.1942,-1.1949,-1.1967,-1.198,-1.1995,-1.2003,-1.2003,-1.2012,-1.2004,-1.2026,-1.2004,-1.2035,-1.2016,-1.2024,-1.2026,-1.2028,-1.2031,-1.2006,-1.2046,-1.211,-1.2117,-1.2032,-1.2031,-1.203,0,-1.1927,-1.1953,-1.198,-1.1986,-1.1994,-1.2006,-1.201,-1.2017,-1.2027,-1.2039,-1.2045,-1.206,-1.2068,-1.2079,-1.2075,-1.2059,-1.2107,-1.2085,-1.2107,-1.2108,-1.2119,-1.2118,-1.2187,-1.2123,-1.2123,-1.2123,-1.2123,0,-1.198,-1.2005,-1.1999,-1.2016,-1.2044,-1.2037,-1.2064,-1.2066,-1.2072,-1.2089,-1.2077,-1.2093,-1.2087,-1.2103,-1.2099,-1.2126,-1.2129,-1.213,-1.2129,-1.2131,-1.2131,-1.2137,-1.2134,-1.2125,-1.2125,-1.2124,-1.2124,0,-1.2033,-1.2031,-1.2059,-1.2064,-1.2066,-1.2086,-1.209,-1.2106,-1.2105,-1.2127,-1.2131,-1.213,-1.2148,-1.2145,-1.2165,-1.2163,-1.2196,-1.2191,-1.2193,-1.2192,-1.2215,-1.2213,-1.229,-1.23,-1.223,-1.2231,-1.2231,0,-1.2068,-1.2087,-1.2093,-1.2104,-1.2109,-1.2126,-1.2135,-1.2129,-1.214,-1.215,-1.2165,-1.2181,-1.2194,-1.2223,-1.2225,-1.224,-1.2235,-1.2261,-1.2237,-1.2239,-1.2236,-1.2235,-1.2237,-1.2266,-1.2267,-1.2267,-1.2268,0,-1.213,-1.2127,-1.2142,-1.2156,-1.2168,-1.2178,-1.2188,-1.2197,-1.2191,-1.2204,-1.2222,-1.2232,-1.2252,-1.2269,-1.2282,-1.2286,-1.2277,-1.2275,-1.2281,-1.2285,-1.2285,-1.2286,-1.2207,-1.2274,-1.2273,-1.2273,-1.2272,-1.2272,-1.2175,-1.2191,-1.2198,-1.2215,-1.2221,-1.223,-1.2245,-1.2246,-1.2261,-1.2277,-1.2272,-1.2292,-1.23,-1.2317,-1.2323,-1.2339,-1.2329,-1.2338,-1.234,-1.2343,-1.2346,-1.2282,-1.2341,-1.2341,-1.2341,-1.2341,-1.2341,0,-1.2237,-1.224,-1.2256,-1.2269,-1.2282,-1.2271,-1.2281,-1.2293,-1.2311,-1.2318,-1.2331,-1.2352,-1.2368,-1.237,-1.2385,-1.2398,-1.2393,-1.2402,-1.2401,-1.2402,-1.2353,-1.2347,-1.2405,-1.2405,-1.2405,-1.2405,-1.2405,-1.2405,-1.227,-1.2297,-1.2295,-1.2325,-1.2328,-1.2348,-1.2355,-1.2363,-1.2369,-1.2393,-1.2406,-1.2407,-1.2413,-1.2428,-1.2442,-1.2442,-1.2449,-1.2459,-1.2458,-1.2412,-1.2406,-1.24,-1.2393,-1.246,-1.2461,-1.2505,-1.2506,-1.2506]},{"header":{"parameterUnit":"m.s-1","parameterCategory":1,"la1":30.2991,"la2":30.254,"lo1":-89.0895,"lo2":-89.0444,"dy":0.0017,"dx":0.0017,"nx":28,"ny":28,"refTime":"2025-01-27T03:00:00:Z","depth":0,"parameterNumber":3,"parameterNumberName":"V-component_of_WINDS"},"data":[0,0,0,0,0,0,0,0,0,0,0,0,0,0,0,0,0,0,0,0,0,0,0,0,0,0,0,0,0,0,0,0,0,0,0,0,0,0,0,0,0,0,0,0,0,0,0,0,0,0,0,0,0,0,0,0,0,0,-3.4952,-3.4953,0,-3.5016,-3.5016,-3.5017,-3.499,-3.4988,-3.4987,-3.4985,-3.5048,-3.5051,-3.5054,0,0,0,0,0,0,0,0,0,0,0,0,0,-3.4805,-3.4807,-3.4952,-3.4953,-3.4954,-3.5016,-3.5016,-3.5017,-3.499,-3.4988,-3.4986,-3.4984,-3.5047,-3.5051,-3.5055,0,0,0,0,0,0,0,0,0,0,0,0,0,-3.4868,-3.4808,-3.4952,-3.4947,-3.4948,-3.5015,-3.5016,-3.5017,-3.499,-3.4988,-3.4986,-3.4984,-3.5046,-3.5051,-3.5055,-3.513,0,0,-3.5069,-3.5071,0,0,0,0,0,0,0,0,-3.4865,-3.4874,-3.4947,-3.4948,-3.4948,-3.4992,-3.4988,-3.5055,-3.4991,-3.4974,-3.4985,-3.4982,-3.5031,-3.5037,-3.5054,-3.5133,-3.5136,-3.507,-3.5073,-3.5075,-3.5076,0,0,0,0,0,0,0,-3.486,-3.4871,-3.4977,-3.4948,-3.4949,-3.4942,-3.4948,-3.5,-3.5015,-3.4975,-3.4974,-3.4982,-3.5031,-3.505,-3.5055,-3.5137,-3.507,-3.5074,-3.5077,-3.5079,-3.5281,-3.5284,0,0,0,0,0,0,-3.4856,-3.4867,-3.4975,-3.4979,-3.49,-3.4946,-3.4953,-3.498,-3.5014,-3.5017,-3.4983,-3.498,-3.5043,-3.505,-3.5057,-3.5148,-3.5075,-3.5079,-3.5082,-3.5279,-3.5282,-3.5284,0,0,0,0,0,0,-3.4853,-3.4866,-3.4972,-3.4923,-3.4936,-3.4951,-3.4982,-3.4983,-3.5001,-3.502,-3.5023,-3.5,-3.5041,-3.5051,-3.5113,-3.515,-3.5081,-3.5085,-3.5276,-3.528,-3.5283,-3.533,0,0,0,0,0,0,-3.4849,-3.4865,-3.4894,-3.4924,-3.4939,-3.5027,-3.4984,-3.4986,-3.501,-3.5006,-3.5036,-3.5039,-3.504,-3.5106,-3.5117,-3.5155,-3.5089,-3.5272,-3.5277,-3.5282,-3.5325,-3.5335,-3.5343,0,0,0,0,0,-3.4844,-3.4904,-3.4896,-3.4909,-3.4975,-3.5029,-3.5038,-3.5039,-3.5013,-3.5042,-3.5054,-3.5038,-3.5144,-3.5112,-3.5125,-3.5165,-3.527,-3.5276,-3.5282,-3.5321,-3.5333,-3.5343,0,0,0,0,0,0,-3.4878,-3.4908,-3.4899,-3.4971,-3.4998,-3.5025,-3.5062,-3.5051,-3.5085,-3.508,-3.5079,-3.5086,-3.515,-3.5163,-3.5128,-3.524,-3.5203,-3.5212,-3.5229,-3.524,-3.5249,-3.5245,-3.5093,0,0,0,0,0,-3.4894,-3.4936,-3.496,-3.5021,-3.5035,-3.5046,-3.507,-3.5068,-3.5096,-3.5107,-3.5123,-3.515,-3.5189,-3.5215,-3.5252,-3.5327,-3.5333,-3.536,-3.5369,-3.5377,-3.5384,-3.5425,-3.5438,-3.5304,-3.5304,-3.5303,0,0,-3.4927,-3.4949,-3.4976,-3.5028,-3.5049,-3.5092,-3.5056,-3.5103,-3.5135,-3.5113,-3.5173,-3.5186,-3.5216,-3.5285,-3.5316,-3.5298,-3.5423,-3.5384,-3.539,-3.5394,-3.5433,-3.5445,-3.5457,-3.5307,-3.5307,-3.5306,0,0,-3.5011,-3.5031,-3.5085,-3.5106,-3.5139,-3.5146,-3.5158,-3.5187,-3.5195,-3.5255,-3.5241,-3.5278,-3.5346,-3.5368,-3.5388,-3.548,-3.5466,-3.5492,-3.554,-3.5579,-3.559,-3.5599,-3.5633,-3.5645,-3.5499,-3.5499,-3.5499,0,-3.5048,-3.5113,-3.5113,-3.5162,-3.5186,-3.5169,-3.5223,-3.5244,-3.5286,-3.5303,-3.5282,-3.5368,-3.5386,-3.546,-3.5483,-3.5499,-3.5514,-3.5489,-3.5589,-3.5598,-3.5607,-3.5639,-3.5651,-3.5502,-3.5502,-3.5502,-3.5501,0,-3.5158,-3.5203,-3.5242,-3.5285,-3.5313,-3.5364,-3.5371,-3.54,-3.5395,-3.5404,-3.5466,-3.5488,-3.553,-3.5547,-3.5543,-3.562,-3.5608,-3.5588,-3.5552,-3.5622,-3.5653,-3.5665,-3.5506,-3.5505,-3.5505,-3.5504,0,0,-3.5264,-3.5307,-3.5321,-3.5341,-3.5375,-3.541,-3.546,-3.5502,-3.5526,-3.5556,-3.5598,-3.5656,-3.5638,-3.5661,-3.5659,-3.5694,-3.5766,-3.5669,-3.567,-3.5687,-3.5854,-3.5869,-3.5883,-3.5757,-3.5759,-3.5761,-3.5851,0,-3.535,-3.544,-3.5441,-3.5523,-3.5565,-3.555,-3.5594,-3.562,-3.5629,-3.5666,-3.5676,-3.5718,-3.569,-3.5704,-3.5738,-3.575,-3.58,-3.5743,-3.5796,-3.5798,-3.579,-3.5899,-3.5916,-3.6,-3.5863,-3.5865,-3.5866,0,-3.5463,-3.5498,-3.5584,-3.5613,-3.5631,-3.567,-3.5709,-3.5744,-3.5773,-3.5778,-3.5804,-3.5797,-3.5847,-3.5809,-3.5879,-3.5841,-3.5862,-3.5872,-3.5875,-3.588,-3.5837,-3.5908,-3.6026,-3.6039,-3.5885,-3.5883,-3.5882,0,-3.5533,-3.5601,-3.5662,-3.5679,-3.5714,-3.5742,-3.5758,-3.5785,-3.581,-3.5843,-3.5859,-3.5898,-3.5919,-3.5949,-3.5952,-3.5924,-3.6023,-3.5984,-3.6029,-3.6029,-3.6051,-3.6049,-3.6175,-3.6063,-3.6063,-3.6063,-3.6063,0,-3.563,-3.5684,-3.5694,-3.5732,-3.5791,-3.5792,-3.5851,-3.5864,-3.5888,-3.5927,-3.5916,-3.5953,-3.5955,-3.5993,-3.5996,-3.6054,-3.6063,-3.6068,-3.6068,-3.607,-3.6069,-3.6084,-3.6079,-3.6066,-3.6065,-3.6065,-3.6064,0,-3.5719,-3.5728,-3.5793,-3.5822,-3.583,-3.5873,-3.5897,-3.5932,-3.5941,-3.5991,-3.6002,-3.6016,-3.606,-3.6066,-3.6118,-3.6119,-3.619,-3.6183,-3.618,-3.618,-3.6224,-3.622,-3.6364,-3.6383,-3.6258,-3.6259,-3.626,0,-3.578,-3.5821,-3.5855,-3.5881,-3.5898,-3.594,-3.5966,-3.5968,-3.5996,-3.6032,-3.6063,-3.6106,-3.6141,-3.6212,-3.6226,-3.6265,-3.626,-3.6308,-3.6266,-3.6266,-3.6262,-3.626,-3.6264,-3.6316,-3.6318,-3.6319,-3.632,0,-3.5889,-3.5892,-3.593,-3.597,-3.6002,-3.6033,-3.6063,-3.6085,-3.6091,-3.6122,-3.6168,-3.6195,-3.6248,-3.6291,-3.633,-3.6345,-3.6334,-3.6333,-3.6345,-3.6347,-3.6345,-3.6348,-3.6203,-3.633,-3.6329,-3.6328,-3.6327,-3.6327,-3.5966,-3.6003,-3.6032,-3.6075,-3.6098,-3.6126,-3.6161,-3.6175,-3.6213,-3.6257,-3.6256,-3.6306,-3.6334,-3.6385,-3.6403,-3.6442,-3.6426,-3.6444,-3.6449,-3.6453,-3.6458,-3.6338,-3.6449,-3.6449,-3.6448,-3.6448,-3.6448,0,-3.6075,-3.6094,-3.6133,-3.6176,-3.621,-3.6197,-3.6229,-3.6258,-3.6303,-3.633,-3.6365,-3.6417,-3.6459,-3.6476,-3.6517,-3.6545,-3.6541,-3.6556,-3.6554,-3.6558,-3.6469,-3.6455,-3.6559,-3.6559,-3.6559,-3.6559,-3.6559,-3.6559,-3.6136,-3.6197,-3.6203,-3.6275,-3.6293,-3.6343,-3.6362,-3.6388,-3.641,-3.6469,-3.6505,-3.6516,-3.6539,-3.6582,-3.6619,-3.6623,-3.6639,-3.6657,-3.6659,-3.6575,-3.6564,-3.6554,-3.654,-3.666,-3.666,-3.6744,-3.6745,-3.6746]}]]